This demonstration page uses our WeatherBlox Daily Observations layout. Learn more.

Left ArrowRight Arrow

40.92945, -100.16068

Hourly Observations for February 28, 2015

Temp ( °F °C ) Dew Point ( °F °C ) Humidity (%) Winds ( mph kmh ) Pressure ( in mb ) Visibility ( mi km ) Precip ( " mm )
12:15 am 00:15 Cloudy 16 -9 7 -14.1 67 67 SSE 13 20 30.48 1032 10 16 N/A
12:35 am 00:35 Cloudy 15 -9.6 6 -14.7 67 67 SSE 13 20 30.48 1032 10 16 N/A
12:55 am 00:55 Cloudy 14 -9.8 5 -15 66 66 SSE 10 17 30.48 1032 10 16 N/A
1:15 am 01:15 Cloudy 14 -10 6 -14.7 69 69 SSE 10 17 30.48 1032 10 16 N/A
1:35 am 01:35 Cloudy 15 -9.7 6 -14.3 69 69 S 7 11 30.48 1032 10 16 N/A
1:55 am 01:55 Cloudy 15 -9.2 7 -13.7 70 70 S 9 15 30.48 1032 10 16 N/A
2:15 am 02:15 Cloudy 15 -9.2 8 -13.5 71 71 S 9 15 30.48 1032 10 16 N/A
2:35 am 02:35 Cloudy 15 -9.2 8 -13.4 72 72 S 8 13 30.48 1032 10 16 N/A
2:55 am 02:55 Cloudy 15 -9.2 8 -13.2 73 73 SSE 9 15 30.48 1032 10 16 N/A
3:15 am 03:15 Cloudy with Light Snow 15 -9.2 9 -13 74 74 SSE 10 17 30.45 1031 7 11 N/A
3:35 am 03:35 Cloudy with Light Snow 15 -9.3 10 -12.5 78 78 S 9 15 30.45 1031 7 11 N/A
3:55 am 03:55 Cloudy with Light Snow 15 -9.3 10 -12.5 78 78 SSE 9 15 30.45 1031 10 16 N/A
4:15 am 04:15 Cloudy with Light Snow 15 -9.3 10 -12.1 80 80 S 8 13 30.45 1031 5 8 N/A
4:35 am 04:35 Cloudy 15 -9.5 8 -13.1 75 75 S 13 20 30.45 1031 10 16 N/A
4:55 am 04:55 Cloudy 15 -9.6 8 -13.5 74 74 S 8 13 30.45 1031 10 16 N/A
5:15 am 05:15 Cloudy 15 -9.5 8 -13.3 74 74 S 12 19 30.45 1031 10 16 N/A
5:35 am 05:35 Cloudy 15 -9.5 8 -13.1 75 75 SSE 9 15 30.45 1031 10 16 N/A
5:55 am 05:55 Cloudy with Light Snow 15 -9.5 9 -12.8 77 77 SSE 13 20 30.45 1031 7 11 N/A
6:15 am 06:15 Cloudy with Light Snow 14 -9.8 8 -13.1 77 77 S 12 19 30.45 1031 10 16 N/A
6:35 am 06:35 Cloudy with Light Snow 14 -9.8 8 -13.1 77 77 S 12 19 30.45 1031 10 16 N/A
6:55 am 06:55 Cloudy with Light Snow 14 -10 9 -13 79 79 S 10 17 30.45 1031 10 16 N/A
7:15 am 07:15 Cloudy with Light Snow 14 -10 9 -13 79 79 SSE 13 20 30.45 1031 10 16 N/A
7:35 am 07:35 Cloudy with Light Snow 14 -10 9 -13 79 79 S 13 20 30.45 1031 10 16 N/A
7:55 am 07:55 Cloudy with Light Snow 14 -10 9 -12.8 80 80 SSE 15 24 30.45 1031 10 16 N/A
8:15 am 08:15 Cloudy with Light Snow 14 -9.8 9 -12.6 80 80 SSE 13 20 30.45 1031 10 16 N/A
8:35 am 08:35 Cloudy with Light Snow 15 -9.5 10 -12.4 80 80 S 12 19 30.48 1032 10 16 N/A
8:55 am 08:55 Cloudy 16 -9 10 -12.3 77 77 SSE 12 19 30.48 1032 10 16 N/A
9:15 am 09:15 Mostly Cloudy 17 -8.5 10 -12.3 74 74 S 12 19 30.45 1031 10 16 N/A
9:35 am 09:35 Mostly Cloudy 17 -8.1 10 -12.3 72 72 S 13 20 30.45 1031 10 16 N/A
9:55 am 09:55 Partly Cloudy 19 -7.2 11 -11.9 69 69 S 14 22 30.45 1031 10 16 N/A
10:15 am 10:15 Partly Cloudy 20 -6.8 11 -11.8 68 68 S 15 24 30.45 1031 10 16 N/A
10:35 am 10:35 Partly Cloudy 21 -6.1 11 -11.9 64 64 SSW 13 20 30.45 1031 10 16 N/A
10:55 am 10:55 Cloudy 22 -5.8 11 -11.9 62 62 SSW 10 17 30.45 1031 10 16 N/A
11:15 am 11:15 Partly Cloudy 22 -5.6 11 -11.9 62 62 SSW 13 20 30.45 1031 10 16 N/A
11:35 am 11:35 Partly Cloudy 22 -5.4 11 -11.9 61 61 SSW 12 19 30.39 1029 10 16 N/A
11:55 am 11:55 Partly Cloudy 23 -5 11 -11.6 60 60 SSW 10 17 30.39 1029 10 16 N/A
12:15 pm 12:15 Partly Cloudy 24 -4.4 11 -11.5 58 58 SSW 12 19 30.39 1029 10 16 N/A
12:30 pm 12:30 Partly Cloudy 24 -4.2 11 -11.5 57 57 SW 13 20 30.39 1029 10 16 N/A
1:15 pm 13:15 Mostly Cloudy 26 -3.6 11 -11.7 54 54 S 12 19 30.36 1028 10 16 N/A
1:35 pm 13:35 Cloudy 26 -3.2 11 -11.6 53 53 SSW 8 13 30.33 1027 10 16 N/A
1:55 pm 13:55 Mostly Cloudy 26 -3.1 11 -11.6 52 52 S 10 17 30.33 1027 10 16 N/A
2:15 pm 14:15 Partly Cloudy 26 -3.5 11 -11.6 54 54 SSW 10 17 30.33 1027 10 16 N/A
2:35 pm 14:35 Mostly Cloudy 26 -3.1 11 -11.6 52 52 SSW 7 11 30.30 1026 10 16 N/A
2:55 pm 14:55 Mostly Cloudy 27 -2.6 12 -11.2 52 52 SW 8 13 30.30 1026 10 16 N/A
3:15 pm 15:15 Partly Cloudy 26 -3.3 11 -11.6 53 53 SSW 7 11 30.30 1026 10 16 N/A
3:35 pm 15:35 Mostly Cloudy 28 -2.1 12 -11.3 50 50 SSW 9 15 30.30 1026 10 16 N/A
3:55 pm 15:55 Mostly Cloudy 27 -2.8 12 -11.1 53 53 SSW 9 15 30.30 1026 10 16 N/A
4:15 pm 16:15 Cloudy 27 -2.9 12 -11.1 54 54 SSW 9 15 30.30 1026 10 16 N/A
4:35 pm 16:35 Cloudy 26 -3.1 12 -11.1 54 54 S 9 15 30.30 1026 10 16 N/A
4:55 pm 16:55 Cloudy 26 -3.5 12 -10.9 57 57 S 10 17 30.30 1026 10 16 N/A
5:15 pm 17:15 Cloudy 25 -3.8 13 -10.7 59 59 SSW 10 17 30.33 1027 10 16 N/A
5:35 pm 17:35 Cloudy 25 -4 13 -10.7 60 60 S 12 19 30.33 1027 10 16 N/A
6:15 pm 18:15 Mostly Cloudy 24 -4.6 12 -11.1 61 61 S 9 15 30.33 1027 10 16 N/A
6:35 pm 18:35 Partly Cloudy 22 -5.7 11 -11.4 65 65 S 7 11 30.33 1027 10 16 N/A
6:55 pm 18:55 Clear 19 -7 11 -11.8 69 69 S 7 11 30.36 1028 10 16 N/A
7:15 pm 19:15 Clear 19 -7.5 10 -12 70 70 SSE 6 9 30.39 1029 10 16 N/A
7:35 pm 19:35 Clear 18 -7.8 11 -11.7 74 74 S 6 9 30.39 1029 10 16 N/A
7:55 pm 19:55 Clear 17 -8.6 10 -12 77 77 S 6 9 30.39 1029 10 16 N/A
8:15 pm 20:15 Clear 17 -8.6 11 -11.6 79 79 S 5 7 30.39 1029 10 16 N/A
8:35 pm 20:35 Clear 16 -9 11 -11.5 82 82 S 5 7 30.39 1029 10 16 N/A
8:55 pm 20:55 Clear 16 -9.1 11 -11.8 81 81 S 6 9 30.39 1029 10 16 N/A
9:15 pm 21:15 Clear 16 -9 12 -11.2 84 84 SSE 5 7 30.39 1029 10 16 N/A
9:35 pm 21:35 Clear 15 -9.2 12 -11.3 85 85 S 6 9 30.39 1029 10 16 N/A
9:55 pm 21:55 Clear 16 -8.9 13 -10.8 86 86 SSE 7 11 30.39 1029 10 16 N/A
10:15 pm 22:15 Clear 16 -8.8 12 -10.9 85 85 S 6 9 30.45 1031 10 16 N/A
10:35 pm 22:35 Clear 16 -9 13 -10.7 88 88 SSW 6 9 30.45 1031 10 16 N/A
10:55 pm 22:55 Clear 16 -8.7 13 -10.5 87 87 S 7 11 30.45 1031 10 16 N/A
11:15 pm 23:15 Clear 16 -8.7 13 -10.4 88 88 S 6 9 30.39 1029 10 16 N/A
11:35 pm 23:35 Clear 15 -9.3 12 -11 88 88 S 5 7 30.45 1031 10 16 N/A
11:55 pm 23:55 Clear 15 -9.3 12 -10.9 88 88 S 6 9 30.45 1031 10 16 N/A

Powered by AerisWeather